Fort Polk, LA

5:44 PM CDT on October 13, 2019 (GMT -0500)
Fort Polk

Weather History for KAQV - August, 2019

Change the Weather History Date:

Saturday, August 10, 2019

  Actual Average (WUND) Record (WUND)
Temperature  
Mean Temperature 86 °F -  
Max Temperature 95 °F - - (-1)
Min Temperature 77 °F - - (-1)
Cooling Degree Days 21    
Growing Degree Days 36 (Base 50)    
Moisture  
Dew Point 74 °F    
Average Humidity 71    
Maximum Humidity 94    
Minimum Humidity 44    
Precipitation  
Precipitation 0.00 in - - ()
Sea Level Pressure  
Sea Level Pressure 29.95 in    
Wind  
Wind Speed 3 mph (SSW)    
Max Wind Speed 7 mph    
Max Gust Speed -    
Visibility 10 miles    
Events      
Averages and records for this station are not official NWS values.
T = Trace of Precipitation, MM = Missing Value Source: NWS Daily Summary

Daily Weather History Graph

Daily Weather History Graph

Search for Another Location

Airport or City:

Astronomy

Aug. 10, 2019 Rise Set
Actual Time 6:35 AM CDT 8:01 PM CDT
Civil Twilight 6:09 AM CDT 8:27 PM CDT
Nautical Twilight 5:38 AM CDT 8:58 PM CDT
Astronomical Twilight 5:06 AM CDT 9:30 PM CDT
Moon 4:37 PM CDT (8/10) 2:17 AM CDT (8/10)
Length of Visible Light 14h 17m
Length of Day
13h 26m
Waxing Gibbous, 79% of the Moon is Illuminated
Aug 10
Waxing Gibbous
Aug 15
Full
Aug 23
Last Quarter
Aug 30
New
Sep 5
First Quarter

Hourly Weather History & Observations

Time (CDT) Temp. Heat Index Dew Point Humidity Pressure Visibility Wind Dir Wind Speed Gust Speed Precip Events Conditions
12:56 AM 80.1 °F 85.1 °F 75.0 °F 85% 29.94 in 10.0 mi Variable 3.5 mph - N/A   Clear
1:56 AM 79.0 °F - 75.0 °F 88% 29.92 in 10.0 mi Variable 3.5 mph - N/A   Clear
2:56 AM 79.0 °F - 75.0 °F 88% 29.92 in 10.0 mi Variable 4.6 mph - N/A   Clear
3:56 AM 79.0 °F - 75.0 °F 88% 29.93 in 10.0 mi Variable 3.5 mph - N/A   Clear
4:56 AM 78.1 °F - 75.0 °F 90% 29.93 in 10.0 mi Variable 3.5 mph - N/A   Clear
6:56 AM 77.0 °F - 75.0 °F 94% 29.96 in 7.0 mi Calm Calm - N/A   Clear
7:56 AM 79.0 °F - 75.9 °F 90% 29.98 in 10.0 mi South 3.5 mph - N/A   Clear
8:56 AM 84.0 °F 93.7 °F 77.0 °F 79% 29.99 in 10.0 mi WSW 4.6 mph - N/A   Partly Cloudy
9:56 AM 89.1 °F 99.1 °F 75.0 °F 63% 30.00 in 10.0 mi Variable 6.9 mph - N/A   Partly Cloudy
10:56 AM 88.0 °F 97.5 °F 75.0 °F 65% 30.00 in 10.0 mi Variable 3.5 mph - N/A   Clear
11:56 AM 88.0 °F 96.5 °F 73.9 °F 63% 30.00 in 10.0 mi Variable 4.6 mph - N/A   Mostly Cloudy
12:18 PM 89.1 °F 97.0 °F 73.0 °F 59% 30.01 in 10.0 mi Variable 3.5 mph - N/A   Scattered Clouds
12:56 PM 91.9 °F 99.5 °F 72.0 °F 52% 29.99 in 10.0 mi Variable 5.8 mph - N/A   Clear
1:56 PM 93.0 °F 100.7 °F 72.0 °F 50% 29.96 in 10.0 mi South 4.6 mph - N/A   Partly Cloudy
2:56 PM 93.9 °F 103.4 °F 73.0 °F 51% 29.93 in 10.0 mi Variable 5.8 mph - N/A   Clear
3:56 PM 95.0 °F 101.3 °F 70.0 °F 44% 29.92 in 10.0 mi Variable 4.6 mph - N/A   Partly Cloudy
4:56 PM 93.9 °F 100.3 °F 70.0 °F 46% 29.91 in 10.0 mi Variable 3.5 mph - N/A   Clear
5:56 PM 93.0 °F 99.0 °F 70.0 °F 47% 29.91 in 10.0 mi Calm Calm - N/A   Clear
6:56 PM 91.9 °F 98.4 °F 71.1 °F 50% 29.90 in 10.0 mi Variable 3.5 mph - N/A   Clear
7:56 PM 84.9 °F 92.1 °F 73.9 °F 69% 29.91 in 10.0 mi Calm Calm - N/A   Clear
8:56 PM 81.0 °F 86.2 °F 73.9 °F 79% 29.93 in 10.0 mi Calm Calm - N/A   Clear
9:56 PM 80.1 °F 84.5 °F 73.9 °F 81% 29.95 in 10.0 mi Calm Calm - N/A   Clear
10:56 PM 78.1 °F - 75.0 °F 90% 29.95 in 10.0 mi Calm Calm - N/A   Clear
11:56 PM 80.1 °F 85.1 °F 75.0 °F 85% 29.95 in 10.0 mi Calm Calm - N/A   Clear